Year,Month,Day,Hour,Minute,Value (Times are PST for temperature in C)
2016,04,25,00,00,4.20
2016,04,25,00,01,4.20
2016,04,25,00,02,4.10
2016,04,25,00,03,4.10
2016,04,25,00,04,4.10
2016,04,25,00,05,4.10
2016,04,25,00,06,4.10
2016,04,25,00,07,4.00
2016,04,25,00,08,4.00
2016,04,25,00,09,4.00
2016,04,25,00,10,3.90
2016,04,25,00,11,3.90
2016,04,25,00,12,3.90
2016,04,25,00,13,3.80
2016,04,25,00,14,3.80
2016,04,25,00,15,3.80
2016,04,25,00,16,3.80
2016,04,25,00,17,3.70
2016,04,25,00,18,3.70
2016,04,25,00,19,3.70
2016,04,25,00,20,3.80
2016,04,25,00,21,3.80
2016,04,25,00,22,3.80
2016,04,25,00,23,3.80
2016,04,25,00,24,3.80
2016,04,25,00,25,3.90
2016,04,25,00,26,3.90
2016,04,25,00,27,3.90
2016,04,25,00,28,3.80
2016,04,25,00,29,3.80
2016,04,25,00,30,3.80
2016,04,25,00,31,3.70
2016,04,25,00,32,3.70
2016,04,25,00,33,3.70
2016,04,25,00,34,3.60
2016,04,25,00,35,3.60
2016,04,25,00,36,3.50
2016,04,25,00,37,3.50
2016,04,25,00,38,3.50
2016,04,25,00,39,3.50
2016,04,25,00,40,3.50
2016,04,25,00,41,3.50
2016,04,25,00,42,3.60
2016,04,25,00,43,3.60
2016,04,25,00,44,3.60
2016,04,25,00,45,3.60
2016,04,25,00,46,3.60
2016,04,25,00,47,3.60
2016,04,25,00,48,3.60
2016,04,25,00,49,3.60
2016,04,25,00,50,3.60
2016,04,25,00,51,3.60
2016,04,25,00,52,3.60
2016,04,25,00,53,3.50
2016,04,25,00,54,3.50
2016,04,25,00,55,3.50
2016,04,25,00,56,3.40
2016,04,25,00,57,3.40
2016,04,25,00,58,3.30
2016,04,25,00,59,3.30
2016,04,25,01,00,3.30
2016,04,25,01,01,3.30
2016,04,25,01,02,3.30
2016,04,25,01,03,3.20
2016,04,25,01,04,3.20
2016,04,25,01,05,3.20
2016,04,25,01,06,3.20
2016,04,25,01,07,3.20
2016,04,25,01,08,3.20
2016,04,25,01,09,3.20
2016,04,25,01,10,3.10
2016,04,25,01,11,3.10
2016,04,25,01,12,3.10
2016,04,25,01,13,3.10
2016,04,25,01,14,3.10
2016,04,25,01,15,3.10
2016,04,25,01,16,3.10
2016,04,25,01,17,3.20
2016,04,25,01,18,3.20
2016,04,25,01,19,3.20
2016,04,25,01,20,3.30
2016,04,25,01,21,3.30
2016,04,25,01,22,3.30
2016,04,25,01,23,3.30
2016,04,25,01,24,3.30
2016,04,25,01,25,3.30
2016,04,25,01,26,3.30
2016,04,25,01,27,3.20
2016,04,25,01,28,3.20
2016,04,25,01,29,3.10
2016,04,25,01,30,3.10
2016,04,25,01,31,3.00
2016,04,25,01,32,3.00
2016,04,25,01,33,2.90
2016,04,25,01,34,2.90
2016,04,25,01,35,2.80
2016,04,25,01,36,2.80
2016,04,25,01,37,2.80
2016,04,25,01,38,2.80
2016,04,25,01,39,2.70
2016,04,25,01,40,2.80
2016,04,25,01,41,2.80
2016,04,25,01,42,2.80
2016,04,25,01,43,2.80
2016,04,25,01,44,2.80
2016,04,25,01,45,2.90
2016,04,25,01,46,2.90
2016,04,25,01,47,3.00
2016,04,25,01,48,3.00
2016,04,25,01,49,3.10
2016,04,25,01,50,3.20
2016,04,25,01,51,3.20
2016,04,25,01,52,3.20
2016,04,25,01,53,3.20
2016,04,25,01,54,3.20
2016,04,25,01,55,3.10
2016,04,25,01,56,3.10
2016,04,25,01,57,3.00
2016,04,25,01,58,2.90
2016,04,25,01,59,2.80
2016,04,25,02,00,2.80
2016,04,25,02,01,2.80
2016,04,25,02,02,2.70
2016,04,25,02,03,2.70
2016,04,25,02,04,2.70
2016,04,25,02,05,2.70
2016,04,25,02,06,2.80
2016,04,25,02,07,2.80
2016,04,25,02,08,2.80
2016,04,25,02,09,2.80
2016,04,25,02,10,2.80
2016,04,25,02,11,2.80
2016,04,25,02,12,2.80
2016,04,25,02,13,2.80
2016,04,25,02,14,2.80
2016,04,25,02,15,2.80
2016,04,25,02,16,2.80
2016,04,25,02,17,2.80
2016,04,25,02,18,2.80
2016,04,25,02,19,2.80
2016,04,25,02,20,2.70
2016,04,25,02,21,2.70
2016,04,25,02,22,2.70
2016,04,25,02,23,2.70
2016,04,25,02,24,2.70
2016,04,25,02,25,2.70
2016,04,25,02,26,2.70
2016,04,25,02,27,2.60
2016,04,25,02,28,2.60
2016,04,25,02,29,2.60
2016,04,25,02,30,2.60
2016,04,25,02,31,2.60
2016,04,25,02,32,2.60
2016,04,25,02,33,2.50
2016,04,25,02,34,2.50
2016,04,25,02,35,2.50
2016,04,25,02,36,2.50
2016,04,25,02,37,2.50
2016,04,25,02,38,2.60
2016,04,25,02,39,2.50
2016,04,25,02,40,2.50
2016,04,25,02,41,2.50
2016,04,25,02,42,2.40
2016,04,25,02,43,2.40
2016,04,25,02,44,2.40
2016,04,25,02,45,2.40
2016,04,25,02,46,2.40
2016,04,25,02,47,2.30
2016,04,25,02,48,2.30
2016,04,25,02,49,2.30
2016,04,25,02,50,2.30
2016,04,25,02,51,2.30
2016,04,25,02,52,2.40
2016,04,25,02,53,2.40
2016,04,25,02,54,2.40
2016,04,25,02,55,2.40
2016,04,25,02,56,2.40
2016,04,25,02,57,2.40
2016,04,25,02,58,2.40
2016,04,25,02,59,2.40
2016,04,25,03,00,2.40
2016,04,25,03,01,2.40
2016,04,25,03,02,2.40
2016,04,25,03,03,2.40
2016,04,25,03,04,2.40
2016,04,25,03,05,2.50
2016,04,25,03,06,2.50
2016,04,25,03,07,2.50
2016,04,25,03,08,2.50
2016,04,25,03,09,2.50
2016,04,25,03,10,2.40
2016,04,25,03,11,2.30
2016,04,25,03,12,2.30
2016,04,25,03,13,2.30
2016,04,25,03,14,2.30
2016,04,25,03,15,2.30
2016,04,25,03,16,2.30
2016,04,25,03,17,2.30
2016,04,25,03,18,2.30
2016,04,25,03,19,2.20
2016,04,25,03,20,2.20
2016,04,25,03,21,2.20
2016,04,25,03,22,2.20
2016,04,25,03,23,2.30
2016,04,25,03,24,2.30
2016,04,25,03,25,2.30
2016,04,25,03,26,2.40
2016,04,25,03,27,2.40
2016,04,25,03,28,2.40
2016,04,25,03,29,2.40
2016,04,25,03,30,2.40
2016,04,25,03,31,2.40
2016,04,25,03,32,2.40
2016,04,25,03,33,2.40
2016,04,25,03,34,2.40
2016,04,25,03,35,2.30
2016,04,25,03,36,2.30
2016,04,25,03,37,2.20
2016,04,25,03,38,2.20
2016,04,25,03,39,2.20
2016,04,25,03,40,2.10
2016,04,25,03,41,2.10
2016,04,25,03,42,2.10
2016,04,25,03,43,2.20
2016,04,25,03,44,2.20
2016,04,25,03,45,2.20
2016,04,25,03,46,2.20
2016,04,25,03,47,2.30
2016,04,25,03,48,2.20
2016,04,25,03,49,2.20
2016,04,25,03,50,2.20
2016,04,25,03,51,2.10
2016,04,25,03,52,2.10
2016,04,25,03,53,2.10
2016,04,25,03,54,2.10
2016,04,25,03,55,2.10
2016,04,25,03,56,2.10
2016,04,25,03,57,2.10
2016,04,25,03,58,2.10
2016,04,25,03,59,2.10
2016,04,25,04,00,2.10
2016,04,25,04,01,2.10
2016,04,25,04,02,2.20
2016,04,25,04,03,2.20
2016,04,25,04,04,2.20
2016,04,25,04,05,2.30
2016,04,25,04,06,2.30
2016,04,25,04,07,2.30
2016,04,25,04,08,2.40
2016,04,25,04,09,2.40
2016,04,25,04,10,2.40
2016,04,25,04,11,2.40
2016,04,25,04,12,2.30
2016,04,25,04,13,2.30
2016,04,25,04,14,2.30
2016,04,25,04,15,2.20
2016,04,25,04,16,2.20
2016,04,25,04,17,2.10
2016,04,25,04,18,2.10
2016,04,25,04,19,2.00
2016,04,25,04,20,2.00
2016,04,25,04,21,1.90
2016,04,25,04,22,1.90
2016,04,25,04,23,1.80
2016,04,25,04,24,1.80
2016,04,25,04,25,1.80
2016,04,25,04,26,1.80
2016,04,25,04,27,1.80
2016,04,25,04,28,1.80
2016,04,25,04,29,1.80
2016,04,25,04,30,1.80
2016,04,25,04,31,1.80
2016,04,25,04,32,1.80
2016,04,25,04,33,1.80
2016,04,25,04,34,1.80
2016,04,25,04,35,1.80
2016,04,25,04,36,1.80
2016,04,25,04,37,1.80
2016,04,25,04,38,1.80
2016,04,25,04,39,1.80
2016,04,25,04,40,1.70
2016,04,25,04,41,1.70
2016,04,25,04,42,1.70
2016,04,25,04,43,1.70
2016,04,25,04,44,1.60
2016,04,25,04,45,1.60
2016,04,25,04,46,1.60
2016,04,25,04,47,1.50
2016,04,25,04,48,1.50
2016,04,25,04,49,1.50
2016,04,25,04,50,1.60
2016,04,25,04,51,1.60
2016,04,25,04,52,1.60
2016,04,25,04,53,1.60
2016,04,25,04,54,1.50
2016,04,25,04,55,1.50
2016,04,25,04,56,1.40
2016,04,25,04,57,1.50
2016,04,25,04,58,1.50
2016,04,25,04,59,1.50
2016,04,25,05,00,1.60
2016,04,25,05,01,1.60
2016,04,25,05,02,1.60
2016,04,25,05,03,1.70
2016,04,25,05,04,1.70
2016,04,25,05,05,1.70
2016,04,25,05,06,1.70
2016,04,25,05,07,1.80
2016,04,25,05,08,1.80
2016,04,25,05,09,1.70
2016,04,25,05,10,1.70
2016,04,25,05,11,1.70
2016,04,25,05,12,1.70
2016,04,25,05,13,1.60
2016,04,25,05,14,1.60
2016,04,25,05,15,1.60
2016,04,25,05,16,1.50
2016,04,25,05,17,1.50
2016,04,25,05,18,1.50
2016,04,25,05,19,1.50
2016,04,25,05,20,1.50
2016,04,25,05,21,1.50
2016,04,25,05,22,1.60
2016,04,25,05,23,1.60
2016,04,25,05,24,1.60
2016,04,25,05,25,1.70
2016,04,25,05,26,1.70
2016,04,25,05,27,1.70
2016,04,25,05,28,1.70
2016,04,25,05,29,1.70
2016,04,25,05,30,1.70
2016,04,25,05,31,1.70
2016,04,25,05,32,1.70
2016,04,25,05,33,1.70
2016,04,25,05,34,1.60
2016,04,25,05,35,1.60
2016,04,25,05,36,1.60
2016,04,25,05,37,1.60
2016,04,25,05,38,1.60
2016,04,25,05,39,1.50
2016,04,25,05,40,1.50
2016,04,25,05,41,1.50
2016,04,25,05,42,1.50
2016,04,25,05,43,1.50
2016,04,25,05,44,1.50
2016,04,25,05,45,1.50
2016,04,25,05,46,1.50
2016,04,25,05,47,1.50
2016,04,25,05,48,1.60
2016,04,25,05,49,1.60
2016,04,25,05,50,1.60
2016,04,25,05,51,1.60
2016,04,25,05,52,1.60
2016,04,25,05,53,1.60
2016,04,25,05,54,1.50
2016,04,25,05,55,1.50
2016,04,25,05,56,1.50
2016,04,25,05,57,1.60
2016,04,25,05,58,1.60
2016,04,25,05,59,1.60
2016,04,25,06,00,1.60
2016,04,25,06,01,1.60
2016,04,25,06,02,1.60
2016,04,25,06,03,1.60
2016,04,25,06,04,1.60
2016,04,25,06,05,1.50
2016,04,25,06,06,1.50
2016,04,25,06,07,1.50
2016,04,25,06,08,1.50
2016,04,25,06,09,1.50
2016,04,25,06,10,1.50
2016,04,25,06,11,1.50
2016,04,25,06,12,1.50
2016,04,25,06,13,1.50
2016,04,25,06,14,1.40
2016,04,25,06,15,1.40
2016,04,25,06,16,1.40
2016,04,25,06,17,1.40
2016,04,25,06,18,1.40
2016,04,25,06,19,1.40
2016,04,25,06,20,1.40
2016,04,25,06,21,1.40
2016,04,25,06,22,1.40
2016,04,25,06,23,1.30
2016,04,25,06,24,1.30
2016,04,25,06,25,1.30
2016,04,25,06,26,1.40
2016,04,25,06,27,1.40
2016,04,25,06,28,1.50
2016,04,25,06,29,1.50
2016,04,25,06,30,1.50
2016,04,25,06,31,1.60
2016,04,25,06,32,1.60
2016,04,25,06,33,1.60
2016,04,25,06,34,1.70
2016,04,25,06,35,1.80
2016,04,25,06,36,1.80
2016,04,25,06,37,1.90
2016,04,25,06,38,1.90
2016,04,25,06,39,2.00
2016,04,25,06,40,2.00
2016,04,25,06,41,2.10
2016,04,25,06,42,2.10
2016,04,25,06,43,2.10
2016,04,25,06,44,2.10
2016,04,25,06,45,2.00
2016,04,25,06,46,2.00
2016,04,25,06,47,2.00
2016,04,25,06,48,2.00
2016,04,25,06,49,2.10
2016,04,25,06,50,2.20
2016,04,25,06,51,2.30
2016,04,25,06,52,2.40
2016,04,25,06,53,2.50
2016,04,25,06,54,2.50
2016,04,25,06,55,2.50
2016,04,25,06,56,2.60
2016,04,25,06,57,2.60
2016,04,25,06,58,2.60
2016,04,25,06,59,2.60
2016,04,25,07,00,2.70
2016,04,25,07,01,2.70
2016,04,25,07,02,2.70
2016,04,25,07,03,2.80
2016,04,25,07,04,2.80
2016,04,25,07,05,2.80
2016,04,25,07,06,2.90
2016,04,25,07,07,2.90
2016,04,25,07,08,2.90
2016,04,25,07,09,2.90
2016,04,25,07,10,2.90
2016,04,25,07,11,2.90
2016,04,25,07,12,2.90
2016,04,25,07,13,2.90
2016,04,25,07,14,2.90
2016,04,25,07,15,2.90
2016,04,25,07,16,3.00
2016,04,25,07,17,3.00
2016,04,25,07,18,3.10
2016,04,25,07,19,3.10
2016,04,25,07,20,3.20
2016,04,25,07,21,3.20
2016,04,25,07,22,3.20
2016,04,25,07,23,3.30
2016,04,25,07,24,3.30
2016,04,25,07,25,3.40
2016,04,25,07,26,3.50
2016,04,25,07,27,3.50
2016,04,25,07,28,3.60
2016,04,25,07,29,3.70
2016,04,25,07,30,3.70
2016,04,25,07,31,3.80
2016,04,25,07,32,3.80
2016,04,25,07,33,3.90
2016,04,25,07,34,3.90
2016,04,25,07,35,4.00
2016,04,25,07,36,4.00
2016,04,25,07,37,4.10
2016,04,25,07,38,4.10
2016,04,25,07,39,4.20
2016,04,25,07,40,4.20
2016,04,25,07,41,4.30
2016,04,25,07,42,4.30
2016,04,25,07,43,4.30
2016,04,25,07,44,4.40
2016,04,25,07,45,4.40
2016,04,25,07,46,4.40
2016,04,25,07,47,4.50
2016,04,25,07,48,4.50
2016,04,25,07,49,4.50
2016,04,25,07,50,4.60
2016,04,25,07,51,4.60
2016,04,25,07,52,4.60
2016,04,25,07,53,4.70
2016,04,25,07,54,4.70
2016,04,25,07,55,4.70
2016,04,25,07,56,4.80
2016,04,25,07,57,4.80
2016,04,25,07,58,4.80
2016,04,25,07,59,4.90
2016,04,25,08,00,4.90
2016,04,25,08,01,4.90
2016,04,25,08,02,5.00
2016,04,25,08,03,5.00
2016,04,25,08,04,5.10
2016,04,25,08,05,5.10
2016,04,25,08,06,5.20
2016,04,25,08,07,5.20
2016,04,25,08,08,5.30
2016,04,25,08,09,5.30
2016,04,25,08,10,5.40
2016,04,25,08,11,5.40
2016,04,25,08,12,5.50
2016,04,25,08,13,5.50
2016,04,25,08,14,5.60
2016,04,25,08,15,5.60
2016,04,25,08,16,5.60
2016,04,25,08,17,5.70
2016,04,25,08,18,5.70
2016,04,25,08,19,5.70
2016,04,25,08,20,5.70
2016,04,25,08,21,5.80
2016,04,25,08,22,5.80
2016,04,25,08,23,5.80
2016,04,25,08,24,5.80
2016,04,25,08,25,5.90
2016,04,25,08,26,5.90
2016,04,25,08,27,5.90
2016,04,25,08,28,5.90
2016,04,25,08,29,6.00
2016,04,25,08,30,6.00
2016,04,25,08,31,6.00
2016,04,25,08,32,6.10
2016,04,25,08,33,6.10
2016,04,25,08,34,6.20
2016,04,25,08,35,6.20
2016,04,25,08,36,6.20
2016,04,25,08,37,6.20
2016,04,25,08,38,6.30
2016,04,25,08,39,6.30
2016,04,25,08,40,6.30
2016,04,25,08,41,6.40
2016,04,25,08,42,6.40
2016,04,25,08,43,6.40
2016,04,25,08,44,6.40
2016,04,25,08,45,6.50
2016,04,25,08,46,6.50
2016,04,25,08,47,6.50
2016,04,25,08,48,6.60
2016,04,25,08,49,6.60
2016,04,25,08,50,6.70
2016,04,25,08,51,6.70
2016,04,25,08,52,6.70
2016,04,25,08,53,6.70
2016,04,25,08,54,6.70
2016,04,25,08,55,6.70
2016,04,25,08,56,6.80
2016,04,25,08,57,6.80
2016,04,25,08,58,6.80
2016,04,25,08,59,6.80
2016,04,25,09,00,6.80
2016,04,25,09,01,6.90
2016,04,25,09,02,7.00
2016,04,25,09,03,7.00
2016,04,25,09,04,7.00
2016,04,25,09,05,7.10
2016,04,25,09,06,7.10
2016,04,25,09,07,7.10
2016,04,25,09,08,7.10
2016,04,25,09,09,7.20
2016,04,25,09,10,7.20
2016,04,25,09,11,7.30
2016,04,25,09,12,7.30
2016,04,25,09,13,7.30
2016,04,25,09,14,7.40
2016,04,25,09,15,7.40
2016,04,25,09,16,7.40
2016,04,25,09,17,7.40
2016,04,25,09,18,7.40
2016,04,25,09,19,7.40
2016,04,25,09,20,7.50
2016,04,25,09,21,7.50
2016,04,25,09,22,7.50
2016,04,25,09,23,7.50
2016,04,25,09,24,7.50
2016,04,25,09,25,7.60
2016,04,25,09,26,7.60
2016,04,25,09,27,7.60
2016,04,25,09,28,7.60
2016,04,25,09,29,7.50
2016,04,25,09,30,7.50
2016,04,25,09,31,7.50
2016,04,25,09,32,7.50
2016,04,25,09,33,7.50
2016,04,25,09,34,7.60
2016,04,25,09,35,7.60
2016,04,25,09,36,7.60
2016,04,25,09,37,7.70
2016,04,25,09,38,7.70
2016,04,25,09,39,7.70
2016,04,25,09,40,7.80
2016,04,25,09,41,7.80
2016,04,25,09,42,7.90
2016,04,25,09,43,7.90
2016,04,25,09,44,8.00
2016,04,25,09,45,8.10
2016,04,25,09,46,8.10
2016,04,25,09,47,8.10
2016,04,25,09,48,8.10
2016,04,25,09,49,8.10
2016,04,25,09,50,8.20
2016,04,25,09,51,8.30
2016,04,25,09,52,8.30
2016,04,25,09,53,8.40
2016,04,25,09,54,8.50
2016,04,25,09,55,8.60
2016,04,25,09,56,8.70
2016,04,25,09,57,8.70
2016,04,25,09,58,8.70
2016,04,25,09,59,8.70
2016,04,25,10,00,8.80
2016,04,25,10,01,8.80
2016,04,25,10,02,8.90
2016,04,25,10,03,9.00
2016,04,25,10,04,9.10
2016,04,25,10,05,9.20
2016,04,25,10,06,9.20
2016,04,25,10,07,9.20
2016,04,25,10,08,9.30
2016,04,25,10,09,9.30
2016,04,25,10,10,9.30
2016,04,25,10,11,9.40
2016,04,25,10,12,9.40
2016,04,25,10,13,9.40
2016,04,25,10,14,9.50
2016,04,25,10,15,9.60
2016,04,25,10,16,9.70
2016,04,25,10,17,9.70
2016,04,25,10,18,9.80
2016,04,25,10,19,9.70
2016,04,25,10,20,9.70
2016,04,25,10,21,9.70
2016,04,25,10,22,9.70
2016,04,25,10,23,9.70
2016,04,25,10,24,9.80
2016,04,25,10,25,9.70
2016,04,25,10,26,9.70
2016,04,25,10,27,9.70
2016,04,25,10,28,9.70
2016,04,25,10,29,9.80
2016,04,25,10,30,9.80
2016,04,25,10,31,9.90
2016,04,25,10,32,9.90
2016,04,25,10,33,10.00
2016,04,25,10,34,10.10
2016,04,25,10,35,10.20
2016,04,25,10,36,10.20
2016,04,25,10,37,10.30
2016,04,25,10,38,10.30
2016,04,25,10,39,10.30
2016,04,25,10,40,10.40
2016,04,25,10,41,10.40
2016,04,25,10,42,10.30
2016,04,25,10,43,10.30
2016,04,25,10,44,10.30
2016,04,25,10,45,10.30
2016,04,25,10,46,10.40
2016,04,25,10,47,10.40
2016,04,25,10,48,10.50
2016,04,25,10,49,10.50
2016,04,25,10,50,10.60
2016,04,25,10,51,10.60
2016,04,25,10,52,10.70
2016,04,25,10,53,10.70
2016,04,25,10,54,10.80
2016,04,25,10,55,10.80
2016,04,25,10,56,10.90
2016,04,25,10,57,11.00
2016,04,25,10,58,11.00
2016,04,25,10,59,11.00
2016,04,25,11,00,10.90
2016,04,25,11,01,10.90
2016,04,25,11,02,10.80
2016,04,25,11,03,10.80
2016,04,25,11,04,10.80
2016,04,25,11,05,10.80
2016,04,25,11,06,10.80
2016,04,25,11,07,10.80
2016,04,25,11,08,10.80
2016,04,25,11,09,10.80
2016,04,25,11,10,10.80
2016,04,25,11,11,10.80
2016,04,25,11,12,10.90
2016,04,25,11,13,10.80
2016,04,25,11,14,10.80
2016,04,25,11,15,10.80
2016,04,25,11,16,10.70
2016,04,25,11,17,10.70
2016,04,25,11,18,10.70
2016,04,25,11,19,10.70
2016,04,25,11,20,10.70
2016,04,25,11,21,10.60
2016,04,25,11,22,10.60
2016,04,25,11,23,10.60
2016,04,25,11,24,10.60
2016,04,25,11,25,10.70
2016,04,25,11,26,10.60
2016,04,25,11,27,10.60
2016,04,25,11,28,10.60
2016,04,25,11,29,10.60
2016,04,25,11,30,10.60
2016,04,25,11,31,10.60
2016,04,25,11,32,10.70
2016,04,25,11,33,10.70
2016,04,25,11,34,10.80
2016,04,25,11,35,10.80
2016,04,25,11,36,10.90
2016,04,25,11,37,10.90
2016,04,25,11,38,11.00
2016,04,25,11,39,11.10
2016,04,25,11,40,11.20
2016,04,25,11,41,11.30
2016,04,25,11,42,11.40
2016,04,25,11,43,11.50
2016,04,25,11,44,11.70
2016,04,25,11,45,11.80
2016,04,25,11,46,11.80
2016,04,25,11,47,11.90
2016,04,25,11,48,11.90
2016,04,25,11,49,11.90
2016,04,25,11,50,11.90
2016,04,25,11,51,11.90
2016,04,25,11,52,11.90
2016,04,25,11,53,11.90
2016,04,25,11,54,12.00
2016,04,25,11,55,12.10
2016,04,25,11,56,12.20
2016,04,25,11,57,12.20
2016,04,25,11,58,12.20
2016,04,25,11,59,12.20
2016,04,25,12,00,12.10
2016,04,25,12,01,12.00
2016,04,25,12,02,12.00
2016,04,25,12,03,12.10
2016,04,25,12,04,12.10
2016,04,25,12,05,12.10
2016,04,25,12,06,12.10
2016,04,25,12,07,12.10
2016,04,25,12,08,12.10
2016,04,25,12,09,12.10
2016,04,25,12,10,12.10
2016,04,25,12,11,12.10
2016,04,25,12,12,12.10
2016,04,25,12,13,12.10
2016,04,25,12,14,12.20
2016,04,25,12,15,12.20
2016,04,25,12,16,12.20
2016,04,25,12,17,12.30
2016,04,25,12,18,12.30
2016,04,25,12,19,12.30
2016,04,25,12,20,12.30
2016,04,25,12,21,12.20
2016,04,25,12,22,12.20
2016,04,25,12,23,12.20
2016,04,25,12,24,12.20
2016,04,25,12,25,12.20
2016,04,25,12,26,12.20
2016,04,25,12,27,12.20
2016,04,25,12,28,12.30
2016,04,25,12,29,12.40
2016,04,25,12,30,12.50
2016,04,25,12,31,12.50
2016,04,25,12,32,12.60
2016,04,25,12,33,12.60
2016,04,25,12,34,12.50
2016,04,25,12,35,12.50
2016,04,25,12,36,12.50
2016,04,25,12,37,12.60
2016,04,25,12,38,12.60
2016,04,25,12,39,12.60
2016,04,25,12,40,12.60
2016,04,25,12,41,12.60
2016,04,25,12,42,12.50
2016,04,25,12,43,12.50
2016,04,25,12,44,12.50
2016,04,25,12,45,12.40
2016,04,25,12,46,12.40
2016,04,25,12,47,12.30
2016,04,25,12,48,12.30
2016,04,25,12,49,12.30
2016,04,25,12,50,12.30
2016,04,25,12,51,12.40
2016,04,25,12,52,12.50
2016,04,25,12,53,12.60
2016,04,25,12,54,12.70
2016,04,25,12,55,12.70
2016,04,25,12,56,12.60
2016,04,25,12,57,12.60
2016,04,25,12,58,12.50
2016,04,25,12,59,12.50
2016,04,25,13,00,12.50
2016,04,25,13,01,12.50
2016,04,25,13,02,12.50
2016,04,25,13,03,12.50
2016,04,25,13,04,12.40
2016,04,25,13,05,12.40
2016,04,25,13,06,12.40
2016,04,25,13,07,12.40
2016,04,25,13,08,12.40
2016,04,25,13,09,12.40
2016,04,25,13,10,12.50
2016,04,25,13,11,12.60
2016,04,25,13,12,12.60
2016,04,25,13,13,12.60
2016,04,25,13,14,12.70
2016,04,25,13,15,12.70
2016,04,25,13,16,12.70
2016,04,25,13,17,12.60
2016,04,25,13,18,12.60
2016,04,25,13,19,12.70
2016,04,25,13,20,12.70
2016,04,25,13,21,12.70
2016,04,25,13,22,12.80
2016,04,25,13,23,12.80
2016,04,25,13,24,12.80
2016,04,25,13,25,12.70
2016,04,25,13,26,12.70
2016,04,25,13,27,12.70
2016,04,25,13,28,12.60
2016,04,25,13,29,12.60
2016,04,25,13,30,12.60
2016,04,25,13,31,12.60
2016,04,25,13,32,12.60
2016,04,25,13,33,12.60
2016,04,25,13,34,12.60
2016,04,25,13,35,12.60
2016,04,25,13,36,12.70
2016,04,25,13,37,12.70
2016,04,25,13,38,12.70
2016,04,25,13,39,12.80
2016,04,25,13,40,12.80
2016,04,25,13,41,12.80
2016,04,25,13,42,12.90
2016,04,25,13,43,13.00
2016,04,25,13,44,13.00
2016,04,25,13,45,13.00
2016,04,25,13,46,13.00
2016,04,25,13,47,13.00
2016,04,25,13,48,13.00
2016,04,25,13,49,13.00
2016,04,25,13,50,12.90
2016,04,25,13,51,12.90
2016,04,25,13,52,12.90
2016,04,25,13,53,12.80
2016,04,25,13,54,12.80
2016,04,25,13,55,12.80
2016,04,25,13,56,12.80
2016,04,25,13,57,12.80
2016,04,25,13,58,12.80
2016,04,25,13,59,12.80
2016,04,25,14,00,12.80
2016,04,25,14,01,12.90
2016,04,25,14,02,12.90
2016,04,25,14,03,12.90
2016,04,25,14,04,12.90
2016,04,25,14,05,12.90
2016,04,25,14,06,12.90
2016,04,25,14,07,12.90
2016,04,25,14,08,12.90
2016,04,25,14,09,12.90
2016,04,25,14,10,12.90
2016,04,25,14,11,12.90
2016,04,25,14,12,12.90
2016,04,25,14,13,13.00
2016,04,25,14,14,13.00
2016,04,25,14,15,13.00
2016,04,25,14,16,13.00
2016,04,25,14,17,13.00
2016,04,25,14,18,13.00
2016,04,25,14,19,12.90
2016,04,25,14,20,12.90
2016,04,25,14,21,12.90
2016,04,25,14,22,12.90
2016,04,25,14,23,12.90
2016,04,25,14,24,12.90
2016,04,25,14,25,12.90
2016,04,25,14,26,12.90
2016,04,25,14,27,12.90
2016,04,25,14,28,12.80
2016,04,25,14,29,12.80
2016,04,25,14,30,12.90
2016,04,25,14,31,12.90
2016,04,25,14,32,12.90
2016,04,25,14,33,12.80
2016,04,25,14,34,12.80
2016,04,25,14,35,12.80
2016,04,25,14,36,12.80
2016,04,25,14,37,12.80
2016,04,25,14,38,12.70
2016,04,25,14,39,12.80
2016,04,25,14,40,12.80
2016,04,25,14,41,12.90
2016,04,25,14,42,13.00
2016,04,25,14,43,13.00
2016,04,25,14,44,13.10
2016,04,25,14,45,13.20
2016,04,25,14,46,13.20
2016,04,25,14,47,13.30
2016,04,25,14,48,13.30
2016,04,25,14,49,13.30
2016,04,25,14,50,13.30
2016,04,25,14,51,13.30
2016,04,25,14,52,13.30
2016,04,25,14,53,13.30
2016,04,25,14,54,13.30
2016,04,25,14,55,13.30
2016,04,25,14,56,13.30
2016,04,25,14,57,13.30
2016,04,25,14,58,13.20
2016,04,25,14,59,13.20
2016,04,25,15,00,13.20
2016,04,25,15,01,13.20
2016,04,25,15,02,13.30
2016,04,25,15,03,13.30
2016,04,25,15,04,13.40
2016,04,25,15,05,13.50
2016,04,25,15,06,13.50
2016,04,25,15,07,13.60
2016,04,25,15,08,13.60
2016,04,25,15,09,13.60
2016,04,25,15,10,13.70
2016,04,25,15,11,13.70
2016,04,25,15,12,13.70
2016,04,25,15,13,13.70
2016,04,25,15,14,13.80
2016,04,25,15,15,13.80
2016,04,25,15,16,13.80
2016,04,25,15,17,13.80
2016,04,25,15,18,13.80
2016,04,25,15,19,13.80
2016,04,25,15,20,13.80
2016,04,25,15,21,13.70
2016,04,25,15,22,13.70
2016,04,25,15,23,13.60
2016,04,25,15,24,13.60
2016,04,25,15,25,13.50
2016,04,25,15,26,13.50
2016,04,25,15,27,13.40
2016,04,25,15,28,13.50
2016,04,25,15,29,13.50
2016,04,25,15,30,13.50
2016,04,25,15,31,13.60
2016,04,25,15,32,13.60
2016,04,25,15,33,13.60
2016,04,25,15,34,13.60
2016,04,25,15,35,13.60
2016,04,25,15,36,13.60
2016,04,25,15,37,13.60
2016,04,25,15,38,13.70
2016,04,25,15,39,13.70
2016,04,25,15,40,13.70
2016,04,25,15,41,13.80
2016,04,25,15,42,13.90
2016,04,25,15,43,14.00
2016,04,25,15,44,14.10
2016,04,25,15,45,14.10
2016,04,25,15,46,14.10
2016,04,25,15,47,14.10
2016,04,25,15,48,14.10
2016,04,25,15,49,14.10
2016,04,25,15,50,14.10
2016,04,25,15,51,14.00
2016,04,25,15,52,13.90
2016,04,25,15,53,13.90
2016,04,25,15,54,13.90
2016,04,25,15,55,13.90
2016,04,25,15,56,13.90
2016,04,25,15,57,13.90
2016,04,25,15,58,13.90
2016,04,25,15,59,13.80
2016,04,25,16,00,13.80
2016,04,25,16,01,13.80
2016,04,25,16,02,13.70
2016,04,25,16,03,13.70
2016,04,25,16,04,13.70
2016,04,25,16,05,13.70
2016,04,25,16,06,13.70
2016,04,25,16,07,13.70
2016,04,25,16,08,13.70
2016,04,25,16,09,13.60
2016,04,25,16,10,13.60
2016,04,25,16,11,13.60
2016,04,25,16,12,13.70
2016,04,25,16,13,13.70
2016,04,25,16,14,13.80
2016,04,25,16,15,13.80
2016,04,25,16,16,13.90
2016,04,25,16,17,13.90
2016,04,25,16,18,14.00
2016,04,25,16,19,14.00
2016,04,25,16,20,14.10
2016,04,25,16,21,14.10
2016,04,25,16,22,14.10
2016,04,25,16,23,14.10
2016,04,25,16,24,14.10
2016,04,25,16,25,14.10
2016,04,25,16,26,14.10
2016,04,25,16,27,14.20
2016,04,25,16,28,14.20
2016,04,25,16,29,14.20
2016,04,25,16,30,14.20
2016,04,25,16,31,14.30
2016,04,25,16,32,14.30
2016,04,25,16,33,14.30
2016,04,25,16,34,14.20
2016,04,25,16,35,14.20
2016,04,25,16,36,14.20
2016,04,25,16,37,14.20
2016,04,25,16,38,14.10
2016,04,25,16,39,14.10
2016,04,25,16,40,14.00
2016,04,25,16,41,14.00
2016,04,25,16,42,14.00
2016,04,25,16,43,14.00
2016,04,25,16,44,14.00
2016,04,25,16,45,14.00
2016,04,25,16,46,14.00
2016,04,25,16,47,14.00
2016,04,25,16,48,14.00
2016,04,25,16,49,14.00
2016,04,25,16,50,14.00
2016,04,25,16,51,13.90
2016,04,25,16,52,13.90
2016,04,25,16,53,13.90
2016,04,25,16,54,13.90
2016,04,25,16,55,13.90
2016,04,25,16,56,13.90
2016,04,25,16,57,13.90
2016,04,25,16,58,13.90
2016,04,25,16,59,14.00
2016,04,25,17,00,14.00
2016,04,25,17,01,14.10
2016,04,25,17,02,14.10
2016,04,25,17,03,14.10
2016,04,25,17,04,14.10
2016,04,25,17,05,14.10
2016,04,25,17,06,14.10
2016,04,25,17,07,14.00
2016,04,25,17,08,14.00
2016,04,25,17,09,14.10
2016,04,25,17,10,14.10
2016,04,25,17,11,14.10
2016,04,25,17,12,14.10
2016,04,25,17,13,14.10
2016,04,25,17,14,14.10
2016,04,25,17,15,14.10
2016,04,25,17,16,14.00
2016,04,25,17,17,14.00
2016,04,25,17,18,13.90
2016,04,25,17,19,13.80
2016,04,25,17,20,13.80
2016,04,25,17,21,13.80
2016,04,25,17,22,13.70
2016,04,25,17,23,13.70
2016,04,25,17,24,13.70
2016,04,25,17,25,13.80
2016,04,25,17,26,13.80
2016,04,25,17,27,13.80
2016,04,25,17,28,13.80
2016,04,25,17,29,13.80
2016,04,25,17,30,13.70
2016,04,25,17,31,13.70
2016,04,25,17,32,13.70
2016,04,25,17,33,13.70
2016,04,25,17,34,13.70
2016,04,25,17,35,13.70
2016,04,25,17,36,13.80
2016,04,25,17,37,13.80
2016,04,25,17,38,13.90
2016,04,25,17,39,13.90
2016,04,25,17,40,14.00
2016,04,25,17,41,14.00
2016,04,25,17,42,14.00
2016,04,25,17,43,14.00
2016,04,25,17,44,14.00
2016,04,25,17,45,14.10
2016,04,25,17,46,14.00